Regional Weather Roundup
Issued by NWS

Home | Current Version | Previous Version | Text Only | Print | Product List | Glossary Off
Versions: 1 2 3 4 5 6 7 8 9 10 11 12 13 14 15 16 17 18 19 20 21 22 23 24 25 26 27 28 29 30 31 32 33 34 35 36 37 38 39 40 41 42 43 44 45 46 47 48 49 50

000
ASUS45 KPSR 131810
RWRAZ

ARIZONA HOURLY REGIONAL WEATHER ROUNDUP
NATIONAL WEATHER SERVICE PHOENIX AZ
1100 AM MST SAT FEB 13 2016

NOTE: FAIR INDICATES FEW OR NO CLOUDS BELOW 12,000 FEET WITH NO
SIGNIFICANT WEATHER AND/OR OBSTRUCTIONS TO VISIBILITY.

AZZ001>003-036-131900-
NORTHWEST ARIZONA

CITY           SKY/WX    TMP DP  RH WIND       PRES   REMARKS
BULLHEAD CITY  SUNNY     66  28  24 N18G24    30.13F
KINGMAN        SUNNY     62  23  22 N6        30.19F
6HR MIN TEMP:  33; 6HR MAX TEMP:  62;

$$

AZZ004>008-015-016-018-131900-
NORTH CENTRAL ARIZONA

CITY           SKY/WX    TMP DP  RH WIND       PRES   REMARKS
GRAND CANYON   SUNNY     60  15  17 SW7       30.30F
6HR MIN TEMP:  23; 6HR MAX TEMP:  60;

WILLIAMS       SUNNY     61  14  16 VRB5      30.36S
PRESCOTT       SUNNY     59  23  25 NW3       30.25F
6HR MIN TEMP:  30; 6HR MAX TEMP:  59;

FLAGSTAFF      SUNNY     55  14  19 SW8       30.32S
6HR MIN TEMP:  22; 6HR MAX TEMP:  55;

PAYSON         SUNNY     64  16  15 CALM      30.26S
PAGE           SUNNY     46  32  58 NW3       30.27S
6HR MIN TEMP:  34; 6HR MAX TEMP:  46;

$$

AZZ009>014-017-131900-
NORTHEAST ARIZONA

CITY           SKY/WX    TMP DP  RH WIND       PRES   REMARKS
WINSLOW        SUNNY     52  21  29 VRB5      30.26F
6HR MIN TEMP:  21; 6HR MAX TEMP:  52;

SAINT JOHNS    SUNNY     57  20  23 NE3       30.26F
6HR MIN TEMP:  20; 6HR MAX TEMP:  57;

WINDOW ROCK    SUNNY     53   0  11 CALM      30.30F
6HR MIN TEMP:  23; 6HR MAX TEMP:  53;

SHOW LOW       SUNNY     61   9  12 S6        30.31S
$$

AZZ023-131900-
GREATER PHOENIX AREA

CITY           SKY/WX    TMP DP  RH WIND       PRES   REMARKS
PHOENIX        MOSUNNY   72  30  21 NE3       30.07F
6HR MIN TEMP:  53; 6HR MAX TEMP:  72;

BUCKEYE        SUNNY     64  32  29 CALM      30.11S
GLENDALE       MOSUNNY   68  32  26 CALM      30.10F
LUKE AFB       SUNNY     69  30  23 CALM      30.08S
6HR MIN TEMP:  46; 6HR MAX TEMP:  70;

DEER VALLEY    SUNNY     71  27  19 VRB5      30.08S
6HR MIN TEMP:  49; 6HR MAX TEMP:  71;

SCOTTSDALE     SUNNY     71  32  23 SW5       30.10S
6HR MIN TEMP:  50; 6HR MAX TEMP:  71;

MESA-FALCON    MOSUNNY  N/A N/A N/A NE7       30.09S
MESA-GATEWAY   MOSUNNY   68  30  24 W5        30.10F
CHANDLER       SUNNY     68  30  24 SW6       30.09F
$$

AZZ027-028-131900-
SOUTHWEST MARICOPA COUNTY AND PINAL COUNTY

CITY           SKY/WX    TMP DP  RH WIND       PRES   REMARKS
CASA GRANDE    SUNNY     66  30  26 CALM      30.10F
6HR MIN TEMP:  45; 6HR MAX TEMP:  66;

GILA BEND      MOSUNNY   67  31  26 VRB3      30.07F
6HR MIN TEMP:  46; 6HR MAX TEMP:  67;

$$

AZZ503-504-507>509-131900-
SOUTHEAST ARIZONA

CITY           SKY/WX    TMP DP  RH WIND       PRES   REMARKS
TUCSON         SUNNY     74  16  11 S3        30.14S
6HR MIN TEMP:  48; 6HR MAX TEMP:  74;

DAVIS-MONTHAN  SUNNY     73  21  14 VRB3      30.12S
6HR MIN TEMP:  48; 6HR MAX TEMP:  73;

RYAN FIELD     SUNNY     70  32  24 SE3       30.13F
NOGALES        SUNNY     74  14  10 CALM      30.17F
6HR MIN TEMP:  40; 6HR MAX TEMP:  74;

SIERRA VISTA   SUNNY     71   9   9 E7        30.23F
6HR MIN TEMP:  43; 6HR MAX TEMP:  72;

DOUGLAS        SUNNY     68  13  12 VRB3      30.21F
6HR MIN TEMP:  31; 6HR MAX TEMP:  68;

SAFFORD        SUNNY     65  20  17 S8        30.18F
6HR MIN TEMP:  36; 6HR MAX TEMP:  65;

$$

AZZ020-021-025-026-031-131900-
SOUTHWEST ARIZONA

CITY           SKY/WX    TMP DP  RH WIND       PRES   REMARKS
YUMA           SUNNY     74  29  19 N8        30.07S
6HR MIN TEMP:  50; 6HR MAX TEMP:  75;

$$

CAZ031-033-041-043-047-048-061-131900-
SOUTHERN CALIFORNIA

CITY           SKY/WX    TMP DP  RH WIND       PRES   REMARKS
DOWNTOWN L.A.  SUNNY     67  47  48 CALM      30.09F HAZE
6HR MIN TEMP:  51; 6HR MAX TEMP:  67;

L.A. AIRPORT   MOSUNNY   57  54  89 W9        30.11S FOG
6HR MIN TEMP:  50; 6HR MAX TEMP:  61;

SAN DIEGO      PTSUNNY   62  51  67 CALM      30.11F
6HR MIN TEMP:  52; 6HR MAX TEMP:  63;

BURBANK        SUNNY     69  35  28 CALM      30.10S
6HR MIN TEMP:  50; 6HR MAX TEMP:  69;

ONTARIO        PTSUNNY   68  31  25 CALM      30.11S
6HR MIN TEMP:  47; 6HR MAX TEMP:  68;

RIVERSIDE      SUNNY     70  32  24 CALM      30.10F
6HR MIN TEMP:  49; 6HR MAX TEMP:  70;

PALM SPRINGS   MOSUNNY   76  27  16 E5        30.08S
6HR MIN TEMP:  57; 6HR MAX TEMP:  76;

EL CENTRO NAS  MOSUNNY   73  22  14 CALM      30.08F
IMPERIAL       SUNNY     72  34  24 W5        30.06S
6HR MIN TEMP:  47; 6HR MAX TEMP:  72;

BLYTHE         SUNNY     66  24  20 CALM      30.11R
6HR MIN TEMP:  45; 6HR MAX TEMP:  66;

NEEDLES        SUNNY     69  28  21 N7        30.13F
6HR MIN TEMP:  47; 6HR MAX TEMP:  69;

$$

NVZ020-UTZ003-131900-
SOUTHERN NEVADA-UTAH

CITY           SKY/WX    TMP DP  RH WIND       PRES   REMARKS
LAS VEGAS      MOSUNNY   61  23  23 CALM      30.15F
6HR MIN TEMP:  46; 6HR MAX TEMP:  61;

SALT LAKE CITY CLOUDY    31  28  89 NW3       30.35R FOG
6HR MIN TEMP:  28; 6HR MAX TEMP:  31;

$$

NMZ009-TXZ055-131900-
NEW MEXICO-WEST TEXAS

CITY           SKY/WX    TMP DP  RH WIND       PRES   REMARKS
ALBUQUERQUE    MOSUNNY   53  21  28 SW3       30.28F
6HR MIN TEMP:  31; 6HR MAX TEMP:  53;

EL PASO        MOSUNNY   61  16  17 VRB3      30.24F
6HR MIN TEMP:  38; 6HR MAX TEMP:  62;

$$


........................KEY........................
SKY/WX - SKY CONDITION/WEATHER
TMP    - TEMPERATURE IN FAHRENHEIT
DP     - DEW POINT IN FAHRENHEIT
RH     - RELATIVE HUMIDITY IN PERCENT
WIND   - DIRECTION AND SPEED IN MILES PER HOUR (MPH)
VRB    - VARIABLE WIND DIRECTION
PRES   - MEAN SEA LEVEL PRESSURE IN INCHES OF MERCURY
         F - FALLING PRESSURE   R - RISING PRESSURE
         S - STEADY PRESSURE
VSB    - VISIBILITY IN MILES
HX     - HEAT INDEX IN FAHRENHEIT
WCI    - WIND CHILL INDEX IN FAHRENHEIT
TC     - TEMPERATURE IN CELSIUS WHICH IS ALSO KNOWN AS
         TEMPERATURE IN CENTIGRADE
AFB    - AIR FORCE BASE
         LUKE AFB IS LUKE AIR FORCE BASE
         DAVIS-MONTHAN IS DAVIS-MONTHAN AIR FORCE BASE
NAS    - NAVAL AIR STATION
         EL CENTRO NAS IS EL CENTRO NAVAL AIR STATION
N/A    - NOT AVAILABLE




USA.gov is the U.S. government's official web portal to all federal, state and local government web resources and services.